GFSMA_500_rhum_246.txt.gz
RH
19 16 12 7 10 20 25 22 20 19 20 32 36 29 25 26 26 26 26 26 26 24 23 22 21 20 19 18 17 17 16 16 16 16 16 17 23 36 32 28 30 27 36
29 41 46 42 52 62 65 33 33 24 23 26 29 30 28 27 24 22 20 21 22 24 25 24 23 23 24 23 23 22 21 19 20 20 19 16 16 19 23 32 33 39 31
27 60 78 65 58 50 41 26 22 24 26 30 33 34 31 27 23 22 27 28 33 31 29 31 32 32 33 34 34 34 34 34 33 32 32 31 25 18 19 24 28 30 48
30 58 41 38 42 36 30 24 24 25 28 33 36 32 29 28 29 30 30 30 29 28 30 31 29 34 42 46 45 43 40 44 46 48 48 46 45 39 28 21 24 25 25
41 50 37 41 40 27 26 26 27 29 37 37 34 30 32 34 35 34 33 35 37 36 36 38 34 29 29 35 41 39 39 41 40 40 45 47 48 49 50 49 68 25 25
40 36 36 29 26 27 28 30 34 39 41 38 34 36 39 41 36 35 36 42 46 47 45 41 40 37 38 35 33 36 38 36 34 32 28 24 22 23 23 34 54 42 35
42 39 35 29 25 28 33 39 43 42 37 39 40 39 41 39 38 41 42 44 42 44 50 42 38 38 39 37 36 32 29 27 26 26 24 22 20 18 17 19 28 27 41
45 39 35 32 32 35 38 43 44 43 40 37 38 39 42 48 48 49 46 46 44 43 43 42 40 38 36 34 31 30 30 30 25 19 13 11 12 12 13 17 24 46 46
50 49 41 38 34 35 44 46 49 45 43 42 40 42 45 45 44 53 55 55 55 50 44 41 42 37 32 31 30 30 27 18 13 8 7 6 7 10 18 27 34 62 100
62 58 53 49 46 48 51 52 52 47 46 46 48 55 50 47 41 33 47 56 48 48 46 41 31 25 25 24 27 28 24 17 10 6 4 4 4 7 13 21 35 61 99
64 55 60 53 50 53 53 52 52 53 50 51 55 56 54 49 49 46 40 40 40 44 42 37 33 29 28 31 32 27 21 11 6 4 3 3 3 3 4 7 10 14 48
62 57 60 56 52 54 56 58 61 56 56 59 62 60 55 54 52 46 41 41 41 43 45 41 35 39 39 32 25 17 8 5 5 4 5 8 15 14 10 6 6 9 8
77 74 67 61 59 59 62 66 64 63 65 66 69 66 64 60 53 48 46 44 40 35 37 47 46 38 28 19 10 7 6 7 7 6 6 13 23 20 17 11 17 20 16
86 78 67 66 62 64 69 71 70 71 71 74 75 71 68 58 54 52 50 45 32 32 38 47 38 23 16 10 7 9 10 10 9 9 10 15 21 36 36 18 25 27 29
96 82 77 72 70 72 78 78 78 75 77 79 75 73 66 58 56 55 57 59 53 42 41 43 33 17 10 7 8 14 15 13 10 11 14 15 19 36 46 29 31 29 31
98 86 82 77 70 78 84 84 78 79 83 79 80 75 63 61 58 59 59 66 61 57 45 36 21 10 6 6 11 16 14 13 11 12 17 17 19 40 62 31 39 31 29
91 88 84 82 78 88 88 89 84 89 80 86 82 75 80 70 60 69 67 66 60 47 35 29 12 6 4 8 12 15 14 12 11 10 18 22 24 42 74 35 38 32 30
90 85 82 82 87 92 95 93 94 84 85 92 83 85 71 70 72 68 71 63 53 32 21 16 9 4 3 6 9 10 14 13 10 9 20 32 34 40 76 37 38 31 29
88 87 88 92 94 98 100 95 91 93 95 85 78 80 80 74 72 73 67 58 36 24 15 9 5 2 3 4 4 5 6 7 8 17 31 42 42 44 81 43 38 43 31
88 89 93 97 99 100 100 91 95 95 92 79 83 85 81 77 77 70 62 44 27 19 12 5 3 3 4 4 5 6 9 31 36 27 20 22 28 47 97 54 39 44 34
88 93 99 99 100 100 95 96 95 94 82 86 92 94 86 84 75 64 50 31 21 12 6 3 3 4 4 5 10 38 38 17 24 26 25 23 27 58 98 57 38 38 38
91 96 98 98 98 100 96 96 93 88 88 91 97 92 91 83 70 55 34 24 13 7 4 3 4 4 6 12 48 35 21 35 36 100 99 77 83 100 94 73 33 41 33
96 96 97 97 98 99 97 97 95 87 89 100 95 92 87 75 64 42 28 17 8 4 3 4 4 6 13 43 38 22 38 48 73 100 88 100 100 100 88 37 40 54 57
96 97 98 95 96 99 99 97 89 92 100 98 98 92 78 72 52 35 21 12 4 3 4 4 4 14 24 24 15 40 84 66 63 100 81 100 93 93 47 48 60 91 100
98 97 97 97 94 93 95 92 88 99 98 100 96 85 76 62 43 26 16 7 3 4 4 4 10 19 8 10 19 65 99 100 51 88 86 90 80 53 48 98 92 100 100
97 97 97 95 94 98 96 87 93 100 100 99 95 83 69 50 30 18 10 3 3 4 4 5 24 12 11 18 51 96 100 100 60 78 82 78 42 41 74 100 100 100 100

GFSMA_500_rhum_249.txt.gz
RH
14 10 11 15 18 18 17 32 42 40 35 39 23 25 26 31 32 29 26 24 24 23 23 22 24 23 24 26 27 27 28 27 28 28 27 27 24 21 19 18 18 17 21
20 19 20 26 44 53 45 49 62 48 27 22 22 25 31 34 30 25 24 25 26 26 26 28 31 34 34 33 35 36 32 36 34 32 28 30 35 36 34 31 26 23 18
25 26 22 29 48 59 54 48 45 33 22 22 24 30 35 31 30 33 34 33 30 29 31 34 38 42 42 42 41 36 32 28 28 28 35 37 33 32 37 41 43 42 36
28 28 30 42 52 37 42 47 36 23 23 26 30 38 40 32 32 32 33 32 34 35 34 34 33 36 39 40 38 34 34 37 33 36 38 36 35 34 33 34 36 39 43
30 37 38 38 31 28 28 25 24 24 25 32 39 43 40 34 33 34 39 38 40 39 39 38 40 39 39 39 36 36 36 34 36 36 33 30 30 30 29 28 28 29 30
30 40 44 36 37 39 33 27 26 29 35 41 44 42 37 34 36 38 43 42 43 47 49 47 44 44 41 40 39 33 29 28 29 28 28 30 30 28 27 23 22 21 22
36 46 48 43 43 37 34 34 37 40 40 45 44 41 39 37 40 42 45 47 48 51 49 48 43 38 36 39 36 34 31 26 24 23 24 30 30 27 22 18 14 14 14
46 49 55 57 51 48 44 41 40 40 45 46 46 44 48 48 46 47 53 52 53 47 44 43 40 41 41 38 35 27 27 27 26 27 26 25 25 21 15 11 10 13 16
46 49 53 49 59 55 50 44 42 43 45 48 48 48 47 53 56 65 65 63 57 54 48 46 41 38 37 29 27 26 23 21 23 25 27 25 18 12 9 8 7 8 19
53 57 57 55 60 54 54 51 50 53 56 54 49 46 47 48 46 47 68 67 63 57 55 54 45 39 31 26 24 25 27 27 25 27 21 15 10 7 6 5 4 4 6
58 59 59 57 60 58 64 66 62 62 58 58 55 55 57 56 57 60 57 64 59 54 54 50 40 31 30 27 28 22 17 23 27 19 10 8 7 6 5 4 4 4 3
62 62 60 66 74 72 59 57 60 61 63 63 60 63 67 70 77 78 70 58 52 61 62 49 33 30 31 28 27 28 28 23 14 9 7 7 7 7 7 6 6 7 8
66 71 68 68 71 72 64 68 70 66 66 65 67 72 78 81 80 74 67 58 54 64 47 44 38 36 32 36 36 28 17 11 8 6 6 8 11 10 10 8 8 10 13
74 72 82 81 77 75 76 78 81 80 77 78 79 85 92 94 87 79 75 68 55 48 40 42 47 42 41 37 24 14 10 7 4 4 6 10 11 11 10 9 9 11 13
80 82 81 82 91 99 90 94 93 96 86 87 91 96 98 97 90 92 75 64 46 28 29 42 30 42 39 25 14 10 7 3 3 4 4 6 12 13 10 10 10 13 15
97 97 91 92 97 97 96 97 97 95 93 94 99 98 98 96 94 82 73 63 45 36 23 36 48 43 26 15 10 6 3 3 3 4 4 5 9 13 13 10 11 22 24
98 92 99 96 97 95 98 96 95 95 94 97 97 99 94 95 91 79 71 53 51 48 38 51 44 25 16 12 6 3 3 3 4 4 5 6 6 8 8 8 9 19 30
94 96 95 97 96 98 97 96 94 95 99 98 100 95 95 97 85 78 71 62 64 62 58 48 28 20 13 6 3 3 3 4 5 9 25 34 38 39 39 38 34 26 39
98 100 97 97 97 96 97 94 94 98 97 97 98 96 96 90 82 78 70 70 71 66 54 32 22 14 6 2 2 3 5 11 22 22 16 20 28 25 21 20 19 35 42
99 99 98 95 94 97 96 93 100 98 96 95 94 96 96 85 83 72 71 77 70 58 39 23 15 9 3 2 3 5 10 10 13 39 57 48 58 72 41 28 23 35 90
99 96 97 95 100 99 94 97 98 97 97 96 98 97 94 82 71 69 79 77 65 49 30 18 11 4 2 3 4 9 9 29 52 81 72 62 88 96 65 26 28 79 88
98 99 99 95 98 95 98 98 97 97 98 98 96 96 93 77 75 81 79 72 55 35 21 12 5 2 2 3 6 10 22 59 81 100 68 72 83 85 68 92 97 94 73
97 96 94 97 96 97 98 97 97 98 98 97 97 95 82 76 76 85 80 63 37 23 13 7 4 2 3 3 7 22 54 80 100 99 68 63 78 71 84 96 93 60 30
97 94 98 97 97 98 97 98 97 97 97 97 96 90 85 80 85 83 73 52 29 15 8 6 3 3 4 5 11 31 50 70 97 94 61 59 74 83 81 58 37 37 67
96 96 95 97 98 97 98 98 97 97 96 96 92 80 81 84 80 79 66 45 24 11 6 3 3 3 4 7 13 40 61 74 65 27 28 60 71 60 41 45 84 89 98
97 96 96 97 98 98 98 97 98 97 97 89 86 85 85 82 83 72 60 36 19 10 4 4 4 4 4 10 18 50 65 74 20 15 43 59 55 37 41 82 98 90 94

GFSMA_500_rhum_252.txt.gz
RH
17 19 17 15 12 13 24 37 43 49 52 48 36 34 23 23 25 29 28 26 29 31 30 26 25 24 24 26 30 34 35 34 34 34 33 30 30 30 30 28 29 31 31
19 20 22 23 24 28 42 69 68 57 58 60 42 24 21 23 26 33 31 28 28 30 28 29 31 31 33 33 33 36 37 35 36 36 33 30 30 31 31 31 32 33 32
18 23 25 26 23 24 60 61 52 43 48 38 29 24 24 25 34 38 33 32 30 30 32 36 38 39 39 40 40 40 41 42 42 39 36 35 32 31 29 28 26 25 27
22 22 22 26 30 47 52 46 35 36 34 25 26 26 26 35 40 38 35 34 32 31 36 41 44 44 45 43 44 41 41 39 37 39 36 34 32 28 25 22 20 18 17
24 24 24 28 34 38 38 33 32 33 28 27 28 30 36 42 42 38 39 38 37 40 44 45 42 48 47 46 42 40 36 32 33 38 38 33 28 26 26 27 27 28 28
28 30 30 31 42 43 36 31 31 30 32 36 40 42 43 44 44 44 44 45 46 45 47 51 56 53 48 42 42 38 36 36 31 26 24 23 24 24 24 23 23 27 28
35 40 44 45 46 48 50 46 43 40 40 46 49 50 48 50 52 53 53 51 48 56 57 63 60 53 47 42 40 41 39 31 23 21 19 14 11 14 16 18 24 25 22
45 60 77 54 46 54 53 56 58 53 53 52 50 49 52 53 54 58 55 57 56 56 65 66 59 56 50 52 55 41 28 24 17 14 12 11 10 12 16 20 20 18 17
44 54 62 53 53 55 54 59 58 56 57 55 55 56 55 58 61 63 61 60 60 66 74 70 68 58 56 59 47 30 22 17 14 13 16 15 16 19 19 16 14 14 13
61 67 57 60 63 67 59 60 62 65 65 63 62 60 60 56 56 73 81 73 80 88 91 85 71 62 52 43 33 24 17 11 13 16 12 13 14 14 13 11 9 8 6
64 61 58 62 71 71 69 68 70 68 65 66 66 64 61 55 52 54 67 86 100 98 100 84 66 60 47 34 25 16 12 18 13 11 11 11 13 10 9 6 4 4 6
68 74 66 68 76 73 72 77 77 78 74 73 73 72 63 58 61 67 71 78 82 98 93 72 63 48 34 24 15 14 19 14 13 13 13 12 8 5 3 3 3 4 8
74 75 75 72 74 79 77 76 80 84 88 85 79 78 72 70 78 81 80 80 84 90 76 71 60 37 29 18 16 22 18 18 15 14 8 4 2 2 3 3 3 4 9
75 75 76 84 88 81 74 72 79 85 98 93 85 87 80 81 80 80 85 80 78 74 63 65 52 39 28 21 31 23 23 20 12 6 3 2 3 3 3 3 4 4 7
73 73 86 92 96 92 80 83 80 94 97 92 92 95 87 83 78 86 87 80 70 57 53 55 40 28 23 22 21 26 23 15 6 2 2 2 3 4 6 6 6 5 5
78 81 94 96 96 89 94 83 96 91 94 91 97 92 88 80 86 97 92 83 77 63 40 35 28 19 19 26 29 25 19 9 2 2 2 4 8 11 16 20 22 27 21
80 96 95 95 89 91 90 88 90 97 95 92 96 89 90 83 95 95 90 86 82 61 39 41 32 26 33 31 29 20 9 3 2 3 4 16 29 36 43 53 46 41 23
94 97 98 96 93 95 95 92 94 99 93 99 96 89 89 89 96 95 93 91 77 58 44 34 29 34 40 32 24 14 4 2 2 4 15 29 49 59 71 44 49 65 36
90 96 93 96 90 91 92 93 99 97 92 96 98 93 92 95 96 97 94 86 70 56 46 34 33 45 38 29 17 6 2 2 3 15 39 57 77 82 81 44 70 74 34
84 93 97 96 86 94 98 96 97 96 90 98 97 95 94 96 97 98 95 76 52 46 37 41 44 42 33 23 10 4 3 3 8 39 56 86 92 91 58 48 69 39 22
86 77 96 80 85 97 95 98 97 96 96 97 95 92 96 97 98 97 93 59 42 40 44 46 47 36 27 14 5 3 3 3 13 62 45 99 38 55 50 58 61 60 36
72 77 83 96 93 97 95 94 98 97 98 97 96 94 98 97 97 96 66 49 45 54 50 50 39 31 18 9 4 3 3 3 17 48 45 15 12 36 59 68 68 85 93
75 81 94 99 97 98 90 96 97 98 96 97 98 97 97 97 97 79 63 59 62 56 52 45 35 22 13 5 4 4 4 5 40 43 30 12 26 53 63 57 63 61 55
73 76 93 96 96 96 100 98 98 96 97 96 97 97 96 98 94 73 60 65 66 60 54 42 26 17 7 4 4 3 4 9 57 41 15 23 34 57 41 33 43 49 68
78 82 99 100 98 95 97 96 98 97 97 98 97 97 96 98 88 64 70 71 64 63 50 36 22 11 4 4 4 4 4 21 55 24 32 23 22 37 40 51 86 100 98
84 84 98 97 97 98 91 97 97 96 98 96 97 97 97 96 77 78 76 69 63 58 42 29 18 7 4 4 4 4 4 30 55 28 48 50 51 55 72 88 100 100 97

GFSMA_500_rhum_255.txt.gz
RH
22 20 18 19 19 18 16 16 22 37 53 52 58 67 57 38 26 24 25 27 32 32 28 26 24 23 23 23 22 21 25 29 31 32 31 34 35 36 35 33 32 32 30
25 22 23 21 22 23 24 27 45 74 78 63 60 55 47 35 26 26 24 28 33 33 29 26 26 27 29 31 34 35 37 39 39 37 36 36 36 33 31 30 30 32 34
29 27 29 27 26 27 30 34 56 60 48 41 40 45 34 27 26 28 28 32 36 33 32 30 26 24 27 37 36 43 45 41 42 41 41 38 33 29 26 28 29 30 30
33 29 30 29 31 38 43 45 52 45 37 34 32 30 29 29 30 32 36 38 39 37 37 37 34 35 37 40 44 48 46 46 43 46 41 39 33 30 28 25 23 24 23
50 45 33 31 31 36 42 42 40 42 43 41 36 30 29 28 32 38 43 45 44 43 42 42 41 40 42 48 58 52 49 48 45 43 48 35 27 21 19 15 12 11 10
44 57 48 37 35 35 37 48 45 41 39 36 35 37 38 39 41 44 47 49 49 47 47 48 45 46 49 56 57 55 56 53 50 47 40 28 20 15 11 12 12 13 14
50 53 58 43 46 51 49 48 54 54 51 50 48 47 46 46 48 49 53 53 52 52 52 53 53 52 55 54 53 57 56 48 40 32 27 22 15 12 13 8 8 10 10
63 51 53 52 68 82 64 53 57 58 57 60 54 50 51 52 55 58 58 57 57 58 59 59 58 59 60 60 62 54 44 37 27 20 13 12 13 11 7 6 10 15 15
66 59 54 56 59 74 68 64 65 65 69 67 61 66 65 66 67 68 62 58 59 60 64 70 67 65 62 63 57 47 39 30 20 13 12 9 8 8 10 16 16 13 9
79 71 65 59 64 75 66 67 69 72 72 79 80 75 75 77 77 75 73 65 62 68 74 72 69 65 68 63 49 44 34 22 16 15 9 12 12 12 12 17 13 7 3
68 78 84 72 66 65 59 62 64 69 74 87 91 85 82 82 84 81 81 79 80 80 78 76 78 75 70 56 48 42 27 19 13 11 13 13 10 11 16 11 4 2 2
71 76 90 89 81 73 76 64 63 66 69 74 79 82 83 90 90 82 76 80 88 95 94 90 87 79 68 52 40 28 23 13 12 13 7 8 8 12 9 3 2 2 3
66 86 96 94 89 78 79 81 73 70 68 70 78 76 84 93 91 78 73 72 77 88 100 98 85 77 64 50 35 27 20 14 15 9 5 8 10 6 3 2 3 10 20
76 74 83 96 90 83 81 91 84 83 76 76 83 85 87 98 87 81 80 73 71 75 95 95 88 76 64 53 37 30 18 16 11 7 8 10 6 3 3 3 14 21 31
91 86 80 83 88 95 95 92 93 92 90 84 83 91 99 93 91 92 79 76 72 74 96 98 81 71 60 41 31 20 18 9 8 7 8 8 4 3 3 11 27 38 56
95 95 96 92 87 92 97 94 96 97 96 94 83 88 90 93 90 97 92 77 74 82 86 80 73 50 41 28 19 16 7 8 8 8 8 4 4 3 5 23 36 61 85
93 91 94 86 84 90 95 95 96 96 96 93 87 90 86 95 95 97 80 71 77 87 84 81 71 42 32 23 22 11 11 10 9 8 5 4 3 3 18 33 47 63 82
86 85 94 86 84 97 100 79 84 92 96 96 96 92 94 97 96 96 85 73 81 87 85 77 56 40 32 27 17 12 13 9 8 6 4 4 4 20 38 41 31 19 36
81 83 90 78 89 99 94 98 86 95 96 96 96 95 97 97 95 95 80 80 85 88 86 66 49 38 34 22 14 14 12 7 6 4 4 4 12 37 32 13 16 35 40
93 97 92 71 79 84 96 97 96 92 89 94 98 97 97 97 97 97 83 85 91 89 84 71 49 48 29 18 16 10 8 6 5 4 4 7 25 30 14 18 41 55 53
97 96 91 79 76 96 95 93 95 96 97 97 97 97 97 98 97 96 94 94 95 87 83 58 53 40 24 21 13 9 7 6 4 4 3 13 31 23 13 27 47 43 59
100 98 91 90 86 81 89 95 93 80 94 96 97 97 97 97 96 96 98 95 98 85 71 64 49 34 21 18 12 8 6 5 3 4 5 31 33 23 25 30 34 42 46
97 89 88 78 76 78 73 74 70 82 97 98 97 97 97 97 97 97 96 96 93 77 72 57 49 27 20 14 9 7 6 5 5 4 12 34 29 42 32 51 57 77 100
83 70 64 68 71 73 73 81 82 96 94 97 97 97 97 97 96 98 95 97 87 72 69 61 37 23 18 12 10 7 6 4 5 4 25 36 25 43 46 59 77 82 100
73 61 72 79 86 89 80 83 93 99 99 98 98 97 98 98 98 99 100 94 79 78 71 54 38 23 18 13 9 7 5 5 4 5 26 40 24 33 59 76 95 92 100
78 84 80 79 85 92 89 83 87 86 98 98 96 97 98 98 98 99 98 94 92 82 68 52 36 23 17 12 7 6 5 5 4 4 16 37 28 22 50 94 88 92 82

GFSMA_500_rhum_258.txt.gz
RH
27 24 22 19 18 18 19 20 21 21 20 28 49 68 71 70 60 46 35 25 24 24 25 30 35 31 27 25 23 25 28 30 31 30 35 38 35 33 33 33 34 31 28
33 30 27 26 24 22 21 21 22 21 23 39 69 70 54 50 46 38 29 26 27 28 30 32 36 34 30 29 28 26 27 29 30 35 42 38 36 39 38 38 36 33 32
50 43 34 31 30 30 30 28 25 25 26 42 57 48 42 45 43 35 28 29 29 33 36 41 41 36 33 35 35 32 27 29 36 46 43 46 42 39 39 41 42 37 30
49 50 52 46 34 34 35 32 33 36 43 51 43 38 36 33 30 29 28 31 37 39 41 41 39 36 37 38 37 33 33 33 38 43 44 46 47 43 40 39 34 27 22
48 48 48 52 55 40 38 34 32 40 49 48 45 42 40 36 35 37 39 39 36 38 39 40 38 38 39 39 39 42 46 49 46 47 44 35 32 31 28 21 14 12 12
65 61 59 50 61 55 43 40 38 42 48 47 48 47 43 41 41 41 41 42 42 40 37 38 38 39 40 44 46 53 55 53 52 46 38 32 31 28 21 14 14 12 14
63 71 78 65 56 61 50 45 53 54 51 53 56 56 58 57 53 51 50 53 51 46 44 43 43 45 48 52 54 56 53 54 48 40 37 35 30 20 16 17 18 19 16
57 73 79 83 72 66 64 63 82 76 56 53 56 59 61 61 61 60 60 56 57 55 51 52 54 57 58 59 55 53 53 48 43 38 37 34 22 24 22 15 8 7 7
57 60 76 88 92 77 72 72 82 78 68 65 63 62 62 67 70 68 68 69 68 67 64 61 61 61 60 58 57 55 49 45 41 38 32 24 28 16 10 12 8 7 6
52 56 61 71 86 97 88 79 87 97 79 73 72 71 68 77 82 78 81 82 79 74 67 64 63 64 64 61 60 54 51 49 47 41 29 32 13 16 8 8 7 6 5
53 49 50 70 78 82 98 94 96 82 74 71 74 76 72 74 78 78 82 90 93 80 76 72 72 70 70 70 65 60 54 52 46 37 30 13 12 7 7 10 5 4 4
60 60 65 83 69 76 95 96 96 94 83 89 84 75 75 74 76 84 91 95 97 93 86 76 78 75 72 68 66 62 54 46 39 33 16 7 6 8 6 3 4 4 4
64 65 82 86 82 89 97 97 96 97 94 93 94 92 91 83 86 92 95 91 94 100 94 89 89 85 80 78 71 71 57 43 37 28 12 7 7 5 4 3 4 4 3
62 70 81 93 94 95 96 97 98 96 97 90 88 93 95 96 96 95 96 97 100 100 100 96 96 92 92 83 76 76 55 40 40 22 8 6 5 6 4 3 3 3 7
63 70 85 94 97 96 97 96 95 96 98 98 94 94 95 96 96 96 96 97 95 98 100 97 94 94 89 79 75 61 47 42 39 10 7 5 7 5 3 3 3 9 26
56 76 84 92 97 96 96 96 96 94 97 97 90 94 96 96 96 97 95 95 97 94 89 91 88 88 80 78 75 64 47 45 13 8 5 5 4 3 3 3 6 23 15
58 78 92 91 94 96 95 97 95 83 87 93 94 92 86 86 92 97 96 97 97 96 98 98 87 83 80 79 77 55 49 19 9 6 5 4 3 3 3 6 21 13 9
67 71 80 87 84 88 88 87 83 83 92 94 94 94 96 96 96 96 97 96 96 97 97 98 96 92 88 77 64 59 28 17 8 5 4 4 3 3 4 15 16 25 23
80 68 89 95 86 85 94 94 78 96 100 94 94 96 96 96 95 96 96 98 97 96 97 98 97 98 95 75 66 42 28 13 7 5 4 3 3 3 11 21 14 29 42
95 78 96 96 96 94 94 94 89 76 89 97 96 95 97 96 96 97 97 94 96 97 96 94 94 95 90 72 56 35 26 10 6 5 4 3 3 5 15 20 18 38 53
94 84 92 92 82 82 99 87 76 83 89 87 95 94 97 96 95 97 97 96 96 96 96 96 98 92 81 70 44 37 19 9 6 5 4 3 3 4 16 22 21 39 61
96 96 95 88 85 88 92 86 79 69 97 89 73 78 81 97 96 96 97 97 97 97 97 100 99 93 83 67 46 36 16 7 5 4 4 3 3 4 18 22 22 49 71
85 84 96 95 92 90 81 67 56 74 83 75 79 88 97 97 96 98 96 98 98 97 97 97 96 96 78 56 53 31 13 7 5 4 4 3 4 15 24 23 31 50 75
92 94 96 96 94 86 84 68 87 88 85 78 87 99 97 94 95 96 97 97 98 98 98 100 98 96 70 60 46 25 11 6 5 4 4 3 5 25 30 24 40 75 84
96 97 95 88 91 91 85 92 96 90 86 83 90 87 96 97 96 97 97 96 96 98 99 100 98 82 65 55 38 23 10 6 5 5 4 3 5 14 33 25 36 64 88
97 97 96 94 96 97 96 97 96 91 91 92 100 99 98 100 100 94 92 93 97 99 99 99 94 76 60 53 36 16 11 6 5 5 4 3 6 13 19 18 34 63 94

GFSMA_500_rhum_261.txt.gz
RH
30 26 24 21 20 20 19 19 21 21 20 21 24 30 39 68 74 65 56 47 38 30 26 25 24 24 24 29 33 32 28 28 30 30 29 24 24 28 37 36 35 36 37
46 42 32 27 26 25 23 23 23 22 22 23 22 23 50 59 51 43 48 44 38 32 27 26 28 28 32 35 37 37 34 31 32 30 27 26 29 32 35 38 42 41 42
45 44 47 43 34 31 30 29 28 27 27 28 29 31 44 55 48 35 33 32 30 28 28 30 35 35 33 36 36 36 34 34 32 30 30 37 41 38 39 39 33 31 31
54 47 46 48 47 49 46 35 32 31 32 35 41 45 43 42 41 40 39 36 33 31 32 38 35 33 36 35 34 33 32 32 30 33 42 40 40 43 40 34 31 30 29
62 68 66 55 49 48 50 53 40 32 35 36 40 51 51 46 41 40 40 38 36 37 38 38 38 40 42 39 37 35 33 36 44 44 42 41 40 39 34 32 33 32 25
74 68 57 69 71 64 53 56 60 44 38 42 44 50 52 56 56 55 56 55 52 50 47 47 46 42 38 39 40 42 44 49 47 43 45 43 39 32 28 29 30 29 22
61 72 66 60 73 76 74 57 64 64 47 53 63 62 50 54 57 59 62 60 55 54 52 52 52 52 56 52 49 51 53 49 48 49 48 44 36 30 30 31 30 17 27
50 64 67 59 61 81 90 84 66 66 64 67 82 78 58 57 63 61 60 60 61 60 60 58 60 61 58 57 57 57 54 51 52 54 48 41 36 34 36 29 18 20 10
54 61 63 55 51 58 68 84 96 80 68 70 78 77 71 71 69 68 68 73 71 68 63 64 68 67 63 61 60 58 58 59 59 55 49 41 37 37 35 26 20 11 12
51 55 62 59 54 54 54 69 81 87 95 90 91 86 79 75 76 76 74 79 77 73 70 74 75 74 67 67 66 64 62 61 55 52 47 38 39 35 31 22 8 11 12
52 51 62 66 58 60 65 74 82 96 95 96 96 95 74 72 76 83 82 79 84 82 76 76 88 82 74 67 73 73 63 59 58 52 46 44 41 34 18 7 11 12 14
40 47 51 61 57 57 68 76 95 95 96 96 97 97 91 82 85 83 81 83 86 85 82 77 80 83 74 67 74 68 63 61 58 53 48 48 40 28 11 9 11 16 7
44 42 40 48 47 49 70 85 95 96 96 96 97 97 97 93 85 87 93 95 92 91 91 83 82 76 74 87 89 77 72 68 61 53 53 49 37 18 10 11 16 7 4
54 49 46 43 42 49 72 84 94 96 96 96 96 97 97 98 98 95 94 97 95 96 97 92 87 85 80 85 86 81 76 73 64 58 58 54 27 15 11 16 7 4 3
58 59 62 50 39 45 79 87 82 97 96 97 96 96 96 97 96 96 96 96 96 96 96 96 90 90 94 97 96 90 86 86 73 70 60 42 31 19 11 10 4 3 4
43 63 69 61 41 44 56 95 95 95 96 95 96 93 89 89 96 96 96 96 92 97 96 97 97 96 95 96 96 96 94 82 79 72 54 37 22 8 13 4 3 3 8
29 57 71 73 55 53 49 79 94 95 95 95 96 95 82 95 95 95 96 96 94 97 97 96 97 98 96 96 96 95 88 82 85 70 40 35 10 11 4 3 3 3 14
30 54 65 75 67 66 56 72 88 88 96 96 93 84 81 85 97 98 97 85 98 95 95 95 96 97 96 99 98 94 90 87 81 53 47 25 8 7 4 4 3 8 18
36 63 69 76 75 75 66 76 100 96 95 96 94 90 89 97 97 99 95 97 96 95 97 98 96 91 93 100 95 93 93 91 75 60 29 10 5 8 5 4 4 12 20
47 74 80 72 76 77 75 83 95 96 95 95 92 94 87 87 90 91 97 90 95 95 85 96 94 91 97 99 97 98 98 80 68 37 13 7 5 6 5 3 7 19 19
58 83 85 78 84 84 86 95 95 96 95 96 97 90 63 83 98 90 86 85 90 83 75 98 92 83 98 96 96 96 90 70 51 19 9 6 5 5 4 3 10 20 18
77 88 85 82 87 86 88 84 95 97 95 96 87 63 64 76 96 88 78 87 88 91 91 89 92 91 97 100 98 97 74 68 35 14 6 5 5 4 3 3 12 18 18
78 80 90 92 86 84 98 86 96 96 95 88 84 83 88 98 82 74 83 92 92 91 87 83 79 89 100 99 99 92 72 52 27 14 8 6 4 4 3 6 18 17 22
99 98 97 93 89 96 97 96 97 96 95 89 90 85 89 88 85 87 91 96 91 87 91 90 75 86 100 99 99 91 67 38 25 11 8 5 4 4 5 11 20 16 31
97 97 96 94 88 93 96 97 96 96 95 89 97 95 96 86 93 93 94 90 88 90 94 96 91 91 100 100 97 79 67 37 22 11 6 4 4 4 12 20 18 15 34
71 72 68 68 83 88 96 97 98 97 96 90 94 95 96 97 96 92 82 79 82 90 95 95 93 100 100 100 95 76 49 40 20 9 6 4 4 4 4 21 14 23 36